Regional Weather Roundup
Issued by NWS

Home | Current Version | Previous Version | Text Only | Print | Product List | Glossary On
Versions: 1 2 3 4 5 6 7 8 9 10 11 12 13 14 15 16 17 18 19 20 21 22 23 24 25 26 27 28 29 30 31 32 33 34 35 36 37 38 39 40 41 42 43 44 45 46 47 48 49 50
451
ASUS43 KLOT 291508
RWRIL

ILLINOIS REGIONAL WEATHER ROUNDUP
NATIONAL WEATHER SERVICE CHICAGO/ROMEOVILLE IL
1000 AM CDT THU JUN 29 2017

NOTE: "FAIR" INDICATES FEW OR NO CLOUDS BELOW 12,000 FEET WITH NO
SIGNIFICANT WEATHER AND/OR OBSTRUCTIONS TO VISIBILITY.

* THESE STATIONS ARE NOT UNDER NWS QUALITY CONTROL. THEY ALSO MAY NOT
  REPORT WEATHER SUCH AS PRECIPITATION OR FOG.

ILZ001-002-007-009-015-016-024-291600-
NORTHWEST ILLINOIS

CITY           SKY/WX    TMP DP  RH WIND       PRES   REMARKS
MOLINE         PTSUNNY   74  63  68 SW15G22   29.81R
STERLING*      PTSUNNY   75  66  73 W14       29.80S
SAVANNA*       CLOUDY    74  66  75 W9        29.78S
$$

ILZ003-004-008-010-011-017-018-291600-
NORTH CENTRAL ILLINOIS

CITY           SKY/WX    TMP DP  RH WIND       PRES   REMARKS
ROCKFORD       CLOUDY    76  66  71 W12       29.78S
FREEPORT*      MOSUNNY   72  65  80 W13       29.79S
ROCHELLE*      MOSUNNY   73  65  76 SW15      29.81R
DE KALB*       CLOUDY    73  64  74 W15       29.80F
PERU*          MOSUNNY   73  63  70 W14       29.82S
$$

ILZ005-006-012>014-019>023-291600-
NORTHEAST ILLINOIS

CITY           SKY/WX    TMP DP  RH WIND       PRES   REMARKS
CHICAGO-OHARE  CLOUDY    75  62  64 SW17G24   29.78R
CHICAGO-MIDWAY CLOUDY    76  62  62 SW18G30   29.79S
AURORA         CLOUDY    75  66  73 W16G22    29.81S
LANSING*       CLOUDY    77  59  53 W17G24    29.82R
JOLIET*        CLOUDY    75  64  67 W9G18     29.82S
WAUKEGAN       PTSUNNY   74  65  73 SW12G18   29.75R
DUPAGE AIRPORT CLOUDY    73  65  75 W12G23    29.79S
WHEELING       PTSUNNY   75  65  70 SW13G23   29.79R
MORRIS*        CLOUDY    74  63  66 W15       29.81S
ROMEOVILLE*    CLOUDY    74  61  63 W14       29.82R
NORTHERLY ISL    N/A     74  59  59 SW9         N/A
$$

LMZ740>746-291600-
SOUTHERN LAKE MICHIGAN

STATION/POSITION SKY/WX   TEMP    WIND        PRES    VSBY  WAVE
                          AIR SEA DIR/SP/G                  HT/PER
                          (F)     (DEG/KT/KT) (MB)    (MI)  (FT/S)
SOUTHERN BUOY              64 60  230/ 14/ 14 1007.1          3/ 4
WILMETTE HARBOR            71 62  230/ 14/ 21   N/A           2/ 2
HARRISON CRIB              74     240/ 15/ 19   N/A
BURNHAM HARBOR             75                   N/A
CALUMET HARBOR             75     210/ 12/ 20 1008.3S
BURNS HARBOR               76     210/ 12/ 22 1009.8R
MICHIGAN CITY              75     200/ 18/ 22   N/A
MICHIGAN CITY 6N           71 65  220/ 12/ 16   N/A           1/ 3
ST. JOSEPH                 71 67  220/ 12/ 16 1008.8          2/ 3
$$

ILZ025>027-034>036-040-047-049-050-058-095>099-291600-
WEST-CENTRAL ILLINOIS

CITY           SKY/WX    TMP DP  RH WIND       PRES   REMARKS
QUINCY         CLOUDY    71  64  78 S9        29.84F
GALESBURG*     CLOUDY    74  64  71 SW10      29.84S
MACOMB*        CLOUDY    73  64  74 SW9       29.86S
JACKSONVILLE*  CLOUDY    75  62  62 SW10      29.87S
PITTSFIELD*    CLOUDY    74  65  71 SW8       29.88S
$$

ILZ028>032-037-038-041>044-048-051>054-059>061-291600-
CENTRAL ILLINOIS

CITY           SKY/WX    TMP DP  RH WIND       PRES   REMARKS
PONTIAC        CLOUDY    76  62  62 SW17      29.86R
BLOOMINGTON    CLOUDY    76  61  59 SW17G26   29.87S
DECATUR        CLOUDY    80  64  58 SW12      29.89R HX  82
PEORIA         CLOUDY    75  65  70 SW14      29.85R
LACON*         PTSUNNY   73  64  73 SW8       29.83R
LINCOLN*       PTSUNNY   79  63  58 SW5       29.88R HX  81
SPRINGFIELD    CLOUDY    81  63  54 SW12      29.88R HX  82
TAYLORVILLE    MOSUNNY   78  65  66 SW10      29.89S HX  80
$$

ILZ033-039-045-046-055>057-062-063-291600-
EAST-CENTRAL ILLINOIS

CITY           SKY/WX    TMP DP  RH WIND       PRES   REMARKS
CHAMPAIGN      SUNNY     82  66  58 SW14G24   29.90R HX  84
RANTOUL*       SUNNY     82  66  58 SW16G23   29.88R HX  85
MATTOON        PTSUNNY   80  69  69 SW9       29.92R HX  83
PARIS*         CLOUDY    79  69  71 SW12G20   29.93R HX  81
$$

ILZ079-100>102-291600-
SOUTHWEST ILLINOIS

CITY           SKY/WX    TMP DP  RH WIND       PRES   REMARKS
ALTON          MOSUNNY   81  70  69 SW17      29.90R HX  84
BELLEVILLE     MOSUNNY   83  69  62 W17G23    29.91S HX  86
CAHOKIA*       SUNNY     83  66  56 SW8G18    29.91R HX  85
SPARTA*        SUNNY     80  67  65 SW15      29.96F HX  82
$$

ILZ064>066-069>071-074>076-080>082-084>086-088>090-092>094-291600-
SOUTH-CENTRAL ILLINOIS

CITY           SKY/WX    TMP DP  RH WIND       PRES   REMARKS
CARBONDALE     SUNNY     81  71  71 SW14      29.97S HX  85
CAIRO*         MOSUNNY   79  71  76 S9        29.99F HX  82
EFFINGHAM*     MOSUNNY   83  68  61 S17G24    29.93R HX  86
MARION         MOSUNNY   82  73  74 SW9       29.98S HX  88
MT. VERNON     SUNNY     82  70  66 SW18      29.93F HX  86
CENTRALIA*     SUNNY     81  70  69 SW14G26   29.91F HX  85
SALEM*         SUNNY     82  68  63 SW18G25   29.92R HX  84
METROPOLIS*    PTSUNNY   82  72  72 S9        30.00F HX  86
$$

ILZ067-068-072-073-078-083-087-091-291600-
SOUTHEAST ILLINOIS

CITY           SKY/WX    TMP DP  RH WIND       PRES   REMARKS
LAWRENCEVILLE  PTSUNNY   81  69  67 SW18G26   29.93F HX  84
FLORA*         MOSUNNY   83  69  61 SW20G26   29.92S HX  87
FAIRFIELD*     SUNNY     82  69  64 S14G20    29.92F HX  85
HARRISBURG*    SUNNY     80  72  75 SW12      29.97F HX  84
ROBINSON*      CLOUDY    80  68  67 SW17G28   29.92R HX  82
CARMI*         SUNNY     82  71  71 SW13      29.96S HX  86
$$

ABBREVIATIONS USED IN REMARKS
   TC - TEMPERATURE IN CELSIUS
  WCI - WIND CHILL INDEX
   HX - HEAT INDEX
  VSB - VISIBILITY
$$





USA.gov is the U.S. government's official web portal to all federal, state and local government web resources and services.